Volver al catálogo

COSMOS 1691 DEB

ActivoPO
NORAD 18565·DEBRIS·🇷🇺 Russia

Lanzado Oct 9, 1985 desde Plesetsk Cosmodrome

Loading…

Próximos Pases (próximas 24 horas)

TLE

ActualizadoSource: Space-Track

Época: Sep 13, 2026, 22:51 UTC

1 18565U 85094U   26256.95274453  .00006151  00000-0  68784-2 0  9999
2 18565  82.4858  62.1777 0122363 239.4458 277.0341 13.67822996703304

Sigue COSMOS 1691 DEB en tiempo real con AllMySat

Download on the App Store